Main page
METAR-TAF:

METAR-TAF

Airports :

Taylorville Municipal Airport

Taylorville, Illinois, United States

latitude: 39-32-03N, longitude: 089-19-40W, elevation: 623 ft

Current weather observation

The report was made 27 minutes ago, at 11:15 UTC
Wind 7 mph from the South
Temperature 34°F
Humidity 80%
Pressure 30.08 in. Hg
Visibility: 10 miles
Overcast at a height of 6000 ft

METAR: KTAZ 231115Z AUTO 18006KT 10SM OVC060 01/M02 A3008 RMK AO2 T00111020

Time: 05:42 (11:42 UTC)


TAF: missing

Weather observations and forecasts of more than 4000 airports (METAR and TAF reports).

The available stations are represented by yellow and red dots on the map.

Hover mouse over dot to see the name of the station.

Then click to see weather observations and forecasts.

To change the map : click on the green buttons with a black cross to zoom in, on the green button with a dash to zoom out, or on the green arrows for adjacent maps.


METAR-TAF: